Terminal Aerodrome Forecast
Issued by NWS

Home | Current Version | Previous Version | Text Only | Print | Product List | Glossary Off
Versions: 1 2 3 4 5 6 7 8 9 10 11 12

000
FTUS43 KFGF 221700
TAFBJI
TAF
KBJI 221725Z 2218/2318 15015G22KT P6SM SCT150
     FM230100 16007KT P6SM VCSH BKN040
     FM230600 18005KT P6SM SCT040=

USA.gov is the U.S. government's official web portal to all federal, state and local government web resources and services.